Weather History for Fort Collins, CO

Change the Weather History Date:

Thursday, February 21, 2013

  Actual Average Record
Temperature  
Mean Temperature 21 °F -  
Max Temperature 28 °F 43 °F 66 °F (2000)
Min Temperature 14 °F 20 °F 10 °F (2006)
Degree Days  
Heating Degree Days 44    
Moisture  
Dew Point 17 °F    
Average Humidity 83    
Maximum Humidity 93    
Minimum Humidity 69    
Precipitation  
Precipitation 0.12 in - - ()
Sea Level Pressure  
Sea Level Pressure 29.82 in    
Wind  
Wind Speed 3 mph (SE)    
Max Wind Speed 12 mph    
Max Gust Speed -    
Visibility 6 miles    
Events      
Averages and records for this station are not official NWS values.
T = Trace of Precipitation, MM = Missing Value Source: NWS Daily Summary

Daily Weather History Graph

Daily Weather History Graph

Search for Another Location

Airport:

Trip Planner

Search our weather history database for the weather conditions in past years. The results will help you decide how hot, cold, wet, or windy it might be!

Date:

Astronomy

Feb. 21, 2013 Rise Set
Actual Time 6:45 AM MST 5:42 PM MST
Civil Twilight 6:17 AM MST 6:10 PM MST
Nautical Twilight 5:45 AM MST 6:42 PM MST
Astronomical Twilight 5:14 AM MST 7:13 PM MST
Moon 1:59 PM MST (2/21) 3:51 AM MST (2/21)
Length of Visible Light 11h 53m
Length of Day
10h 57m
Waxing Gibbous, 84% of the Moon is Illuminated
Feb 21
Waxing Gibbous
Feb 25
Full
Mar 4
Last Quarter
Mar 11
New
Mar 19
First Quarter

Hourly Weather History & Observations

Time (MST) Temp. Windchill Dew Point Humidity Pressure Visibility Wind Dir Wind Speed Gust Speed Precip Events Conditions
7:15 AM 14.0 °F - 10.4 °F 86% 29.79 in 1.2 mi Calm Calm - N/A   Overcast
7:35 AM 14.0 °F - 10.4 °F 86% 29.79 in 2.0 mi Calm Calm - N/A   Overcast
7:55 AM 15.8 °F 10.2 °F 12.2 °F 86% 29.80 in 2.5 mi North 3.5 mph - N/A   Overcast
8:15 AM 15.8 °F - 12.2 °F 86% 29.81 in 1.5 mi Calm Calm - N/A   Overcast
8:35 AM 15.8 °F - 12.2 °F 86% 29.81 in 2.0 mi Calm Calm - N/A   Overcast
8:55 AM 17.6 °F 12.3 °F 14.0 °F 86% 29.81 in 5.0 mi NNE 3.5 mph - N/A   Overcast
9:15 AM 17.6 °F 9.3 °F 12.2 °F 79% 29.82 in 4.0 mi NE 5.8 mph - N/A   Overcast
9:35 AM 17.6 °F 9.3 °F 12.2 °F 79% 29.82 in 9.0 mi ENE 5.8 mph - N/A   Overcast
9:55 AM 19.4 °F 14.3 °F 14.0 °F 80% 29.82 in 5.0 mi ENE 3.5 mph - N/A   Overcast
10:15 AM 21.2 °F 16.4 °F 15.8 °F 80% 29.82 in 4.0 mi ENE 3.5 mph - N/A   Overcast
10:55 AM 21.2 °F - 14.0 °F 74% 29.82 in 2.5 mi Calm Calm - N/A   Mostly Cloudy
11:15 AM 19.4 °F 14.3 °F 14.0 °F 80% 29.82 in 3.0 mi NW 3.5 mph - N/A   Overcast
11:35 AM 19.4 °F - 14.0 °F 80% 29.81 in 4.0 mi Calm Calm - N/A   Overcast
11:55 AM 21.2 °F - 17.6 °F 86% 29.81 in 10.0 mi Calm Calm - 0.03 in   Overcast
12:15 PM 21.2 °F - 15.8 °F 80% 29.80 in 10.0 mi Calm Calm - 0.02 in   Overcast
12:35 PM 24.8 °F - 19.4 °F 80% 29.79 in 10.0 mi Calm Calm - 0.04 in   Partly Cloudy
12:55 PM 21.2 °F - 14.0 °F 74% 29.78 in 10.0 mi Calm Calm - 0.06 in   Clear
1:15 PM 23.0 °F - 17.6 °F 80% 29.77 in 10.0 mi Calm Calm - 0.01 in   Partly Cloudy
1:35 PM 24.8 °F 20.5 °F 19.4 °F 80% 29.77 in 10.0 mi SW 3.5 mph - 0.02 in   Clear
1:55 PM 23.0 °F 15.8 °F 17.6 °F 80% 29.77 in 10.0 mi SW 5.8 mph - 0.03 in   Partly Cloudy
2:15 PM 24.8 °F 20.5 °F 17.6 °F 74% 29.76 in 10.0 mi SSW 3.5 mph - N/A   Mostly Cloudy
2:55 PM 28.4 °F 22.2 °F 19.4 °F 69% 29.76 in 10.0 mi North 5.8 mph - N/A   Overcast
3:15 PM 28.4 °F 19.7 °F 19.4 °F 69% 29.77 in 10.0 mi NE 9.2 mph - N/A   Overcast
3:35 PM 28.4 °F 20.4 °F 19.4 °F 69% 29.77 in 10.0 mi NNE 8.1 mph - N/A   Overcast
3:55 PM 28.4 °F 21.2 °F 19.4 °F 69% 29.78 in 10.0 mi NE 6.9 mph - N/A   Overcast
4:15 PM 28.4 °F 18.5 °F 19.4 °F 69% 29.79 in 8.0 mi NE 11.5 mph - N/A   Overcast
4:55 PM 26.6 °F 16.8 °F 19.4 °F 74% 29.81 in 4.0 mi NE 10.4 mph - N/A   Overcast
5:15 PM 24.8 °F 14.0 °F 19.4 °F 80% 29.82 in 1.5 mi ESE 11.5 mph - N/A   Overcast
5:35 PM 24.8 °F 16.1 °F 19.4 °F 80% 29.82 in 0.8 mi SSE 8.1 mph - N/A   Overcast
5:55 PM 23.0 °F 13.1 °F 19.4 °F 86% 29.84 in 1.0 mi SSE 9.2 mph - N/A   Overcast
6:15 PM 23.0 °F 14.7 °F 19.4 °F 86% 29.84 in 2.0 mi SE 6.9 mph - N/A   Overcast
6:35 PM 23.0 °F 14.7 °F 19.4 °F 86% 29.85 in 2.5 mi SSE 6.9 mph - N/A   Overcast
6:55 PM 21.2 °F 12.6 °F 19.4 °F 93% 29.85 in 2.5 mi South 6.9 mph - N/A   Overcast
7:15 PM 21.2 °F 13.6 °F 19.4 °F 93% 29.86 in 1.8 mi South 5.8 mph - N/A   Overcast
7:35 PM 21.2 °F 11.7 °F 19.4 °F 93% 29.86 in 2.0 mi South 8.1 mph - N/A   Overcast
7:55 PM 21.2 °F 12.6 °F 17.6 °F 86% 29.87 in 3.0 mi South 6.9 mph - N/A   Overcast
8:15 PM 19.4 °F 11.5 °F 17.6 °F 93% 29.87 in 5.0 mi South 5.8 mph - N/A   Overcast
8:35 PM 19.4 °F 11.5 °F 17.6 °F 93% 29.87 in 5.0 mi South 5.8 mph - N/A   Overcast
8:55 PM 19.4 °F 11.5 °F 15.8 °F 86% 29.87 in 5.0 mi South 5.8 mph - N/A   Overcast
9:15 PM 17.6 °F 7.3 °F 15.8 °F 93% 29.87 in 10.0 mi South 8.1 mph - N/A   Overcast
9:35 PM 19.4 °F 12.8 °F 17.6 °F 93% 29.87 in 10.0 mi SSW 4.6 mph - N/A   Overcast
9:55 PM 19.4 °F 14.3 °F 17.6 °F 93% 29.87 in 10.0 mi South 3.5 mph - N/A   Overcast
10:15 PM 19.4 °F 11.5 °F 17.6 °F 93% 29.86 in 10.0 mi South 5.8 mph - N/A   Overcast
10:35 PM 19.4 °F 11.5 °F 17.6 °F 93% 29.86 in 9.0 mi South 5.8 mph - N/A   Overcast
10:55 PM 17.6 °F 9.3 °F 15.8 °F 93% 29.86 in 5.0 mi South 5.8 mph - N/A   Mostly Cloudy
11:15 PM 17.6 °F 10.7 °F 15.8 °F 93% 29.86 in 5.0 mi South 4.6 mph - N/A   Partly Cloudy
11:55 PM 15.8 °F 6.1 °F 12.2 °F 86% 29.85 in 0.2 mi South 6.9 mph - N/A   Unknown